Location: Unspecified
(0.0000°N, 0.0000°E)
Time: 04:23:31
(UTC+00:00)

CZ-4C DEB - Pass Details

Date: 14 March 2026
Orbit: 805 x 1381 km, 63.4° (Epoch: 15 April)

Event Time Altitude Azimuth Distance (km) Brightness Sun altitude
Rises 20:44:28 0° 314° (NW) 4,286 ? -38.8°
Reaches altitude 10° 20:47:41 10° 304° (WNW) 3,371 ? -39.6°
Maximum altitude 20:54:41 30° 246° (WSW) 2,260 ? -41.4°
Drops below altitude 10° 21:01:51 10° 189° (S) 3,434 ? -43.1°
Sets 21:05:11 0° 178° (S) 4,377 ? -44.0°
